Skip Page Navigation
NASA JPL Caltech
NASA Logo - Jet Propulsion Laboratory + View the NASA Portal
+ Near-Earth Object (NEO) Program
Search JPL
JPL Home Earth Solar System Stars & Galaxies Technology
JPL Solar System Dynamics
BODIES ORBITS EPHEMERIDES TOOLS PHYSICAL DATA DISCOVERY FAQ SITE MAP
JPL Small-Body Database Browser
Search: [ help ]  
336155 (2008 RO1)
Classification: Main-belt Asteroid          SPK-ID: 2336155
Ephemeris | Orbit Diagram | Orbital Elements | Physical Parameters | Discovery Circumstances ]

[ hide orbit diagram ]
Orbit Diagram
Note: Make sure you have Java enabled on your browser to see the applet. This applet is provided as a 3D orbit visualization tool. The applet was implemented using 2-body methods, and hence should not be used for determining accurate long-term trajectories (over several years or decades) or planetary encounter circumstances. For accurate long-term ephemerides, please instead use our Horizons system.
Orbit Viewer

Additional Notes: the orbits shown in the applet are color coded. The planets are white lines, and the asteroid/comet is a blue line. The bright white line indicates the portion of the orbit that is above the ecliptic plane, and the darker portion is below the ecliptic plane. Likewise for the asteroid/comet orbit, the light blue indicates the portion above the ecliptic plane, and the dark blue the portion below the ecliptic plane.

Orbit Viewer applet originally written and kindly provided by Osamu Ajiki (AstroArts), and further modified by Ron Baalke (JPL).


Orbital Elements at Epoch 2456400.5 (2013-Apr-18.0) TDB
Reference: MPO251930 (heliocentric ecliptic J2000)
 Element Value Uncertainty (1-sigma)   Units 
e 0.2072519 n/a  
a 2.4468762 n/a AU
q 1.9397565 n/a AU
i 3.33845 n/a deg
node 127.62878 n/a deg
peri 252.30427 n/a deg
M 37.94587 n/a deg
tp 2456253.1404025
(2012-Nov-21.64040250)
n/a JED
period 1398.0297489
3.83
n/a
n/a
d
yr
n 0.25750525 n/a deg/d
Q 2.9539959 n/a AU
  Orbit Determination Parameters
   # obs. used (total)      71  
   first obs. used      1993-??-??  
   last obs. used      2012-10-06  
   # oppositions      7  
   planetary ephem.      DE403  
   condition code      1  
   fit RMS      0.52  
   data source      MPC:mpu  
   producer      MPCLINUX  

Additional Information
 T_jup = 3.466 

Ephemeris | Orbit Diagram | Orbital Elements | Physical Parameters | Discovery Circumstances ]

Physical Parameter Table
Parameter Symbol Value Units Sigma Reference Notes
absolute magnitude H 17.5 mag n/a MPO251930  

336155 (2008 RO1)          Discovered 2008-Sep-04 by Molnar, L. A. at Calvin-Rehoboth (G98)
Reference: 20120831/Numbers.arcLast Updated: 2012-09-04

Alternate Designations
 2008 RO1 = 2006 AQ75 = 2006 BN4 = 2010 AG66 
Ephemeris | Orbit Diagram | Orbital Elements | Physical Parameters | Discovery Circumstances ]
ABOUT SSD CREDITS/AWARDS PRIVACY/COPYRIGHT GLOSSARY LINKS
FirstGov 2013-May-25 03:41 UT
(server date/time)  
NASA Home Page
Site Manager:   Donald K. Yeomans
Webmaster  Alan B. Chamberlin